Regional Weather Roundup
Issued by NWS Charleston, WV

Home | Current Version | Previous Version | Text Only | Print | Product List | Glossary Off
Versions: 1 2 3 4 5 6 7 8 9 10 11 12 13 14 15 16 17 18 19 20 21 22 23 24 25 26 27 28 29 30 31 32 33 34 35 36 37 38 39 40 41 42 43 44 45 46 47 48 49 50

000
ASUS41 KRLX 280810
RWRRLX
West Virginia Regional Weather Roundup
National Weather Service Charleston WV
400 AM EDT MON JUL 28 2014

Note: "fair" indicates few or no clouds below 12,000 feet with no
significant weather and/or obstructions to visibility.

WVZ003-280900-
Northern Panhandle of West Virginia

CITY           SKY/WX    TMP DP  RH WIND       PRES   REMARKS
WHEELING       CLOUDY    64  62  93 W10       29.68R
$$

WVZ009-280900-
Northwest West Virginia

CITY           SKY/WX    TMP DP  RH WIND       PRES   REMARKS
PARKERSBURG      N/A    N/A N/A N/A MISG        N/A
$$

WVZ006-280900-
Western West Virginia

CITY           SKY/WX    TMP DP  RH WIND       PRES   REMARKS
HUNTINGTON     CLOUDY    67  65  93 W7        29.79S
$$

WVZ015-280900-
West Central West Virginia

CITY           SKY/WX    TMP DP  RH WIND       PRES   REMARKS
CHARLESTON     CLEAR     69  66  90 SW13      29.78S
$$

WVZ031-280900-
North Central West Virginia

CITY           SKY/WX    TMP DP  RH WIND       PRES   REMARKS
CLARKSBURG     CLOUDY    68  63  84 W12G21    29.70S
MORGANTOWN     CLOUDY    69  64  84 SW7       29.69S
$$

WVZ035-042-045-280900-
South Central West Virginia

CITY           SKY/WX    TMP DP  RH WIND       PRES   REMARKS
BECKLEY        MOCLDY    66  63  90 W10       29.85S
BLUEFIELD      CLOUDY    66  62  87 W10       29.89F
LEWISBURG      CLOUDY    68  64  84 W8        29.82S
$$

WVZ047-280900-
Northern Mountains of West Virginia

CITY           SKY/WX    TMP DP  RH WIND       PRES   REMARKS
ELKINS         PTCLDY    68  61  78 W10       29.75F
$$

WVZ052-280900-
Eastern Panhandle of West Virginia

CITY           SKY/WX    TMP DP  RH WIND       PRES   REMARKS
MARTINSBURG    PTCLDY    68  63  84 SW6       29.61F
PETERSBURG     PTCLDY    66  61  85 CALM      29.67S
$$


USA.gov is the U.S. government's official web portal to all federal, state and local government web resources and services.